Date,TemperatureHighF,TemperatureAvgF,TemperatureLowF,DewpointHighF,DewpointAvgF,DewpointLowF,HumidityHigh,HumidityAvg,HumidityLow,PressureMaxIn,PressureMinIn,WindSpeedMaxMPH,WindSpeedAvgMPH,GustSpeedMaxMPH,PrecipitationSumIn
2013-2-1,54.9,46.8,42.1,47.8,43.7,38.1,99,90,66,30.39,30.28,6,1,17,0.00
2013-2-2,57.2,47.8,34.8,43.2,38.7,33.8,97,72,53,30.32,30.27,10,4,27,0.00
2013-2-3,47.5,41.4,32.6,43.7,39.8,31.8,98,94,85,30.36,30.25,1,0,2,0.00
2013-2-4,53.1,45.2,38.9,44.1,41.6,38.2,98,88,67,30.26,29.96,1,0,4,0.00
2013-2-5,52.9,46.3,42.8,45.7,42.6,40.6,95,87,72,30.06,29.94,7,2,17,0.10
2013-2-6,51.2,46.2,42.3,43.2,41.0,39.3,92,83,66,30.12,29.87,7,1,15,0.12
2013-2-7,49.9,41.9,33.4,40.1,37.3,32.6,97,85,58,30.16,29.94,5,1,17,0.04
2013-2-8,44.4,35.8,30.4,37.3,33.4,29.6,98,91,74,30.31,30.16,1,0,4,0.00
2013-2-9,42.5,37.7,29.8,40.9,36.4,29.1,98,95,90,30.32,30.28,2,0,5,0.00
2013-2-10,47.4,42.5,40.1,40.7,38.7,36.8,97,87,71,30.37,30.32,1,0,6,0.00
2013-2-11,44.6,42.4,40.6,42.3,39.1,36.2,95,88,77,30.41,30.33,3,1,7,0.02
2013-2-12,55.7,48.4,44.0,47.5,44.8,42.1,95,88,71,30.49,30.40,4,2,12,0.02
2013-2-13,49.9,47.4,43.4,46.3,44.0,40.2,95,88,82,30.53,30.43,4,1,10,0.01
2013-2-14,54.0,44.7,36.3,45.6,41.1,35.5,98,88,69,30.59,30.52,1,0,5,0.00
2013-2-15,60.9,46.3,34.1,45.8,40.4,33.6,99,82,53,30.52,30.21,5,1,13,0.00
2013-2-16,50.3,42.3,34.7,46.9,40.3,33.7,98,93,79,30.30,30.22,3,0,9,0.10
2013-2-17,45.5,40.0,33.3,39.1,36.1,32.0,97,86,61,30.32,30.12,2,0,5,0.00
2013-2-18,47.0,39.4,31.4,37.8,34.5,30.5,97,83,59,30.12,29.76,3,0,7,0.00
2013-2-19,56.5,43.0,34.0,42.8,36.8,32.5,97,80,47,30.02,29.72,3,0,7,0.11
2013-2-20,47.2,39.7,29.6,40.8,36.6,28.6,97,89,71,30.11,30.02,4,1,8,0.06
2013-2-21,44.2,41.6,38.6,40.2,38.5,36.2,94,89,82,30.21,30.10,7,3,18,0.05
2013-2-22,45.5,43.1,37.0,43.5,40.0,34.9,95,89,81,30.19,29.89,9,4,23,0.43
2013-2-23,47.2,40.4,35.5,41.1,36.3,33.9,95,86,68,30.46,30.08,6,2,12,0.06
2013-2-24,51.1,42.5,34.6,38.6,35.3,33.0,96,77,51,30.45,30.07,6,1,11,0.00
2013-2-25,48.4,42.2,36.6,43.0,38.1,34.3,95,86,65,30.40,30.03,8,2,20,0.34
2013-2-26,49.4,42.0,34.7,39.2,36.2,33.4,97,81,58,30.41,30.26,2,0,9,0.00
2013-2-27,53.0,46.8,41.6,44.9,41.1,37.4,96,81,59,30.33,30.25,3,0,7,0.06
2013-2-28,55.5,51.6,44.9,52.5,49.3,44.1,99,92,87,30.45,30.22,6,3,14,0.13